User: anonymous   Login
Location: ????????
(55.6189°N, 38.3031°E)
Time: 12:24:49
(UTC+00:00)
Language:

Cosmos 2333 - Orbit

View from above orbital plane
View from above orbital plane
View from above satellite
View from above satellite

Ground track
Ground track

The orbit data is extracted from the following two-line orbital elements,

1 24297U 96051A   20028.81712467 -.00000087 +00000-0 -20791-4 0  9993
2 24297 070.9007 202.4563 0025603 213.7846 146.1645 14.13323348206904
Epoch (UTC): 28 January 2020 19:36:39
Eccentricity: 0.0025603
inclination: 70.9007°
perigee height: 829 km
apogee height: 866 km
right ascension of ascending node: 202.4563°
argument of perigee: 213.7846°
revolutions per day: 14.13323348
mean anomaly at epoch: 146.1645°
orbit number at epoch: 20690

The dashed part of the orbit path shows where the satellite is in the earth's shadow,  

DLR